Flag for Guinea Weather past 2 weeks in Conakry, Guinea

Now
84 °F

Sunny.


Feels Like: 91 °F
Forecast: N/A
Wind: 9 mph from West

Location: Conakry / Gbessia

Current Time: Jan 25, 2015 at 7:11:28 PM

Latest Report: Jan 25, 2015 at 6:00 PM


Visibility: 10 mi

Pressure: 29.77 "Hg

Humidity: 70%

Dew point: 73 °F

Location of ConakryLocation

Historic Weather in Conakry — Graph

°F

Conakry temperature yesterday

Maximum temperature yesterday: 88 °F (at 12:00 PM)
Minimum temperature yesterday: 73 °F (at 8:00 AM)
Average temperature yesterday: 81 °F

Past Weeks' High & Low Weather Summary

 TemperatureHumidityPressure
High90 °F (Jan 11, 2:00 PM)100% (Jan 18, 4:00 AM)30.01 "Hg (Jan 18, 4:00 AM)
Low68 °F (Jan 15, 8:00 AM)29% (Jan 11, 4:00 PM)29.77 "Hg (Jan 24, 4:00 PM)
Average80 °F74%29.90 "Hg
* Reported Jan 10 6:00 PM — Jan 25 6:00 PM, Conakry, Weather by CustomWeather, © 2014

Note: Actual official high and low records may vary slightly from our data, if they occured in-between our weather recording intervals... More about our weather records

Advertising

Conakry weather history for previous 24 hours

 ConditionsComfort  
Time TempWeatherWind HumidityBarometerVisibility
6:00 PM
Jan 25
84 °FSunny.9 mph70%29.77 "Hg10 mi
2:00 PM86 °FPassing clouds.9 mph66%29.83 "HgN/A
12:00 PM84 °FHaze.9 mph74%29.86 "Hg3 mi
11:00 AM84 °FHaze.5 mph74%29.89 "Hg3 mi
10:00 AM81 °FHaze.5 mph79%29.89 "Hg3 mi
9:00 AM77 °FFog.5 mph83%29.86 "Hg2 mi
8:00 AM75 °FFog.5 mph94%29.86 "Hg2 mi
7:00 AM73 °FFog.5 mph100%29.83 "Hg2 mi
6:00 AM75 °FFog.2 mph100%29.83 "Hg2 mi
5:00 AM77 °FFog.2 mph100%29.83 "Hg2 mi
4:00 AM77 °FFog.2 mph100%29.83 "Hg2 mi
3:00 AM77 °FFog.2 mph94%29.83 "Hg2 mi
2:00 AM77 °FFog.2 mph94%29.86 "Hg2 mi
1:00 AM79 °FFog.2 mph89%29.86 "Hg2 mi
12:00 AM79 °FClear.5 mph84%29.89 "Hg10 mi
11:00 PM
Jan 24
81 °FClear.5 mph84%29.89 "Hg10 mi
10:00 PM81 °FClear.5 mph84%29.89 "Hg10 mi
9:00 PM81 °FClear.2 mph79%29.86 "Hg10 mi
8:00 PM81 °FClear.5 mph84%29.83 "Hg10 mi
7:00 PM82 °FPassing clouds.No wind79%29.80 "Hg5 mi
Weather by CustomWeather, © 2014

See weather overviewHow to use our weather pages